Flag for Germany Weather past 2 weeks in Öhringen, Baden-Württemberg, Germany

Now
64 °F

Overcast.


Feels Like: 64 °F
Forecast: 54 / 64 °F
Wind: 2 mph from Southwest

Location: Oehringen

Current Time: Sep 20, 2014 at 10:38:14 AM

Latest Report: Sep 20, 2014 at 10:00 AM


Visibility: 13 mi

Pressure: 29.98 "Hg

Humidity: 83%

Dew point: 59 °F

Location of ÖhringenLocation

Historic Weather in Öhringen — Graph

°F

Öhringen temperature yesterday

Maximum temperature yesterday: 74 °F (at 3:00 PM)
Minimum temperature yesterday: 58 °F (at 5:00 AM)
Average temperature yesterday: 66 °F

Past Weeks' High & Low Weather Summary

 TemperatureHumidityPressure
High79 °F (Sep 8, 5:00 PM)99% (Sep 12, 3:00 PM)30.16 "Hg (Sep 12, 3:00 PM)
Low49 °F (Sep 11, 7:00 AM)45% (Sep 10, 4:00 PM)29.84 "Hg (Sep 18, 4:00 PM)
Average62 °F83%29.99 "Hg
* Reported Sep 5 9:00 AM — Sep 20 9:00 AM, Öhringen, Weather by CustomWeather, © 2014

Note: Actual official high and low records may vary slightly from our data, if they occured in-between our weather recording intervals... More about our weather records

Advertising

Öhringen weather history for previous 24 hours

 ConditionsComfort  
Time TempWeatherWind HumidityBarometerVisibility
9:00 AM
Sep 20
60 °FOvercast.1 mph90%29.98 "Hg11 mi
8:00 AM58 °FPartly sunny.1 mph96%29.98 "Hg7 mi
7:00 AM58 °FClear.1 mph96%29.98 "Hg9 mi
6:00 AM58 °FClear.2 mph98%29.98 "Hg7 mi
5:00 AM59 °FFog.1 mph97%29.97 "Hg4 mi
4:00 AM60 °FClear.1 mph97%29.97 "Hg6 mi
3:00 AM60 °FOvercast.1 mph94%29.98 "Hg8 mi
2:00 AM62 °FOvercast.1 mph94%29.98 "Hg8 mi
1:00 AM62 °FOvercast.1 mph94%29.98 "Hg12 mi
12:00 AM61 °FOvercast.1 mph94%29.98 "Hg7 mi
11:00 PM
Sep 19
62 °FOvercast.1 mph94%29.97 "Hg8 mi
10:00 PM63 °FOvercast.1 mph92%29.96 "Hg10 mi
9:00 PM64 °FOvercast.1 mph90%29.95 "Hg12 mi
8:00 PM65 °FOvercast.2 mph86%29.94 "Hg10 mi
7:00 PM69 °FOvercast.1 mph71%29.92 "Hg19 mi
6:00 PM71 °FOvercast.3 mph73%29.92 "Hg16 mi
5:00 PM73 °FOvercast.2 mph64%29.92 "Hg16 mi
4:00 PM74 °FPassing clouds.3 mph60%29.90 "Hg19 mi
3:00 PM74 °FPassing clouds.3 mph63%29.91 "Hg17 mi
2:00 PM74 °FScattered clouds.3 mph62%29.92 "Hg18 mi
1:00 PM72 °FPassing clouds.3 mph63%29.92 "Hg22 mi
12:00 PM71 °FScattered clouds.3 mph66%29.92 "Hg22 mi
11:00 AM71 °FOvercast.3 mph66%29.92 "Hg19 mi
10:00 AM67 °FPassing clouds.2 mph76%29.93 "Hg19 mi
Weather by CustomWeather, © 2014

See weather overviewHow to use our weather pages